Year,Month,Day,Hour,Minute,Value (Times are PST for temperature in C)
2013,07,04,00,00,16.60
2013,07,04,00,01,16.60
2013,07,04,00,02,16.60
2013,07,04,00,03,16.60
2013,07,04,00,04,16.70
2013,07,04,00,05,16.70
2013,07,04,00,06,16.70
2013,07,04,00,07,16.70
2013,07,04,00,08,16.70
2013,07,04,00,09,16.70
2013,07,04,00,10,16.70
2013,07,04,00,11,16.70
2013,07,04,00,12,16.70
2013,07,04,00,13,16.70
2013,07,04,00,14,16.70
2013,07,04,00,15,16.70
2013,07,04,00,16,16.70
2013,07,04,00,17,16.70
2013,07,04,00,18,16.60
2013,07,04,00,19,16.60
2013,07,04,00,20,16.60
2013,07,04,00,21,16.60
2013,07,04,00,22,16.60
2013,07,04,00,23,16.50
2013,07,04,00,24,16.50
2013,07,04,00,25,16.50
2013,07,04,00,26,16.40
2013,07,04,00,27,16.40
2013,07,04,00,28,16.50
2013,07,04,00,29,16.50
2013,07,04,00,30,16.50
2013,07,04,00,31,16.50
2013,07,04,00,32,16.50
2013,07,04,00,33,16.50
2013,07,04,00,34,16.50
2013,07,04,00,35,16.50
2013,07,04,00,36,16.50
2013,07,04,00,37,16.60
2013,07,04,00,38,16.50
2013,07,04,00,39,16.50
2013,07,04,00,40,16.50
2013,07,04,00,41,16.50
2013,07,04,00,42,16.50
2013,07,04,00,43,16.50
2013,07,04,00,44,16.40
2013,07,04,00,45,16.40
2013,07,04,00,46,16.40
2013,07,04,00,47,16.40
2013,07,04,00,48,16.40
2013,07,04,00,49,16.40
2013,07,04,00,50,16.30
2013,07,04,00,51,16.30
2013,07,04,00,52,16.30
2013,07,04,00,53,16.40
2013,07,04,00,54,16.40
2013,07,04,00,55,16.50
2013,07,04,00,56,16.50
2013,07,04,00,57,16.60
2013,07,04,00,58,16.60
2013,07,04,00,59,16.70
2013,07,04,01,00,16.70
2013,07,04,01,01,16.70
2013,07,04,01,02,16.70
2013,07,04,01,03,16.70
2013,07,04,01,04,16.70
2013,07,04,01,05,16.70
2013,07,04,01,06,16.70
2013,07,04,01,07,16.70
2013,07,04,01,08,16.60
2013,07,04,01,09,16.60
2013,07,04,01,10,16.60
2013,07,04,01,11,16.60
2013,07,04,01,12,16.60
2013,07,04,01,13,16.60
2013,07,04,01,14,16.60
2013,07,04,01,15,16.60
2013,07,04,01,16,16.50
2013,07,04,01,17,16.50
2013,07,04,01,18,16.50
2013,07,04,01,19,16.50
2013,07,04,01,20,16.50
2013,07,04,01,21,16.50
2013,07,04,01,22,16.50
2013,07,04,01,23,16.40
2013,07,04,01,24,16.40
2013,07,04,01,25,16.40
2013,07,04,01,26,16.50
2013,07,04,01,27,16.40
2013,07,04,01,28,16.40
2013,07,04,01,29,16.40
2013,07,04,01,30,16.40
2013,07,04,01,31,16.40
2013,07,04,01,32,16.40
2013,07,04,01,33,16.30
2013,07,04,01,34,16.30
2013,07,04,01,35,16.20
2013,07,04,01,36,16.20
2013,07,04,01,37,16.20
2013,07,04,01,38,16.30
2013,07,04,01,39,16.30
2013,07,04,01,40,16.30
2013,07,04,01,41,16.30
2013,07,04,01,42,16.30
2013,07,04,01,43,16.30
2013,07,04,01,44,16.30
2013,07,04,01,45,16.30
2013,07,04,01,46,16.30
2013,07,04,01,47,16.30
2013,07,04,01,48,16.30
2013,07,04,01,49,16.30
2013,07,04,01,50,16.30
2013,07,04,01,51,16.30
2013,07,04,01,52,16.30
2013,07,04,01,53,16.20
2013,07,04,01,54,16.20
2013,07,04,01,55,16.20
2013,07,04,01,56,16.20
2013,07,04,01,57,16.20
2013,07,04,01,58,16.20
2013,07,04,01,59,16.20
2013,07,04,02,00,16.20
2013,07,04,02,01,16.20
2013,07,04,02,02,16.20
2013,07,04,02,03,16.20
2013,07,04,02,04,16.20
2013,07,04,02,05,16.20
2013,07,04,02,06,16.20
2013,07,04,02,07,16.20
2013,07,04,02,08,16.20
2013,07,04,02,09,16.20
2013,07,04,02,10,16.20
2013,07,04,02,11,16.20
2013,07,04,02,12,16.20
2013,07,04,02,13,16.20
2013,07,04,02,14,16.20
2013,07,04,02,15,16.20
2013,07,04,02,16,16.20
2013,07,04,02,17,16.20
2013,07,04,02,18,16.20
2013,07,04,02,19,16.20
2013,07,04,02,20,16.20
2013,07,04,02,21,16.20
2013,07,04,02,22,16.10
2013,07,04,02,23,16.10
2013,07,04,02,24,16.10
2013,07,04,02,25,16.00
2013,07,04,02,26,15.90
2013,07,04,02,27,15.90
2013,07,04,02,28,15.90
2013,07,04,02,29,15.90
2013,07,04,02,30,15.90
2013,07,04,02,31,15.90
2013,07,04,02,32,15.90
2013,07,04,02,33,15.90
2013,07,04,02,34,15.90
2013,07,04,02,35,15.90
2013,07,04,02,36,15.90
2013,07,04,02,37,15.90
2013,07,04,02,38,15.80
2013,07,04,02,39,15.80
2013,07,04,02,40,15.80
2013,07,04,02,41,15.80
2013,07,04,02,42,15.80
2013,07,04,02,43,15.80
2013,07,04,02,44,15.80
2013,07,04,02,45,15.80
2013,07,04,02,46,15.80
2013,07,04,02,47,15.70
2013,07,04,02,48,15.60
2013,07,04,02,49,15.60
2013,07,04,02,50,15.50
2013,07,04,02,51,15.50
2013,07,04,02,52,15.40
2013,07,04,02,53,15.40
2013,07,04,02,54,15.40
2013,07,04,02,55,15.40
2013,07,04,02,56,15.40
2013,07,04,02,57,15.30
2013,07,04,02,58,15.40
2013,07,04,02,59,15.40
2013,07,04,03,00,15.40
2013,07,04,03,01,15.40
2013,07,04,03,02,15.50
2013,07,04,03,03,15.50
2013,07,04,03,04,15.40
2013,07,04,03,05,15.40
2013,07,04,03,06,15.30
2013,07,04,03,07,15.30
2013,07,04,03,08,15.30
2013,07,04,03,09,15.30
2013,07,04,03,10,15.30
2013,07,04,03,11,15.40
2013,07,04,03,12,15.40
2013,07,04,03,13,15.50
2013,07,04,03,14,15.50
2013,07,04,03,15,15.50
2013,07,04,03,16,15.50
2013,07,04,03,17,15.40
2013,07,04,03,18,15.40
2013,07,04,03,19,15.30
2013,07,04,03,20,15.40
2013,07,04,03,21,15.40
2013,07,04,03,22,15.50
2013,07,04,03,23,15.50
2013,07,04,03,24,15.60
2013,07,04,03,25,15.60
2013,07,04,03,26,15.60
2013,07,04,03,27,15.60
2013,07,04,03,28,15.60
2013,07,04,03,29,15.60
2013,07,04,03,30,15.60
2013,07,04,03,31,15.60
2013,07,04,03,32,15.50
2013,07,04,03,33,15.50
2013,07,04,03,34,15.40
2013,07,04,03,35,15.40
2013,07,04,03,36,15.30
2013,07,04,03,37,15.20
2013,07,04,03,38,15.20
2013,07,04,03,39,15.10
2013,07,04,03,40,15.00
2013,07,04,03,41,15.00
2013,07,04,03,42,15.00
2013,07,04,03,43,15.10
2013,07,04,03,44,15.10
2013,07,04,03,45,15.10
2013,07,04,03,46,15.10
2013,07,04,03,47,15.20
2013,07,04,03,48,15.20
2013,07,04,03,49,15.10
2013,07,04,03,50,15.10
2013,07,04,03,51,15.10
2013,07,04,03,52,15.00
2013,07,04,03,53,15.00
2013,07,04,03,54,14.90
2013,07,04,03,55,14.80
2013,07,04,03,56,14.80
2013,07,04,03,57,14.80
2013,07,04,03,58,14.80
2013,07,04,03,59,14.80
2013,07,04,04,00,14.70
2013,07,04,04,01,14.70
2013,07,04,04,02,14.60
2013,07,04,04,03,14.60
2013,07,04,04,04,14.60
2013,07,04,04,05,14.50
2013,07,04,04,06,14.50
2013,07,04,04,07,14.50
2013,07,04,04,08,14.50
2013,07,04,04,09,14.50
2013,07,04,04,10,14.60
2013,07,04,04,11,14.60
2013,07,04,04,12,14.50
2013,07,04,04,13,14.50
2013,07,04,04,14,14.50
2013,07,04,04,15,14.50
2013,07,04,04,16,14.50
2013,07,04,04,17,14.60
2013,07,04,04,18,14.60
2013,07,04,04,19,14.60
2013,07,04,04,20,14.60
2013,07,04,04,21,14.60
2013,07,04,04,22,14.60
2013,07,04,04,23,14.60
2013,07,04,04,24,14.60
2013,07,04,04,25,14.60
2013,07,04,04,26,14.60
2013,07,04,04,27,14.60
2013,07,04,04,28,14.60
2013,07,04,04,29,14.60
2013,07,04,04,30,14.70
2013,07,04,04,31,14.70
2013,07,04,04,32,14.70
2013,07,04,04,33,14.70
2013,07,04,04,34,14.80
2013,07,04,04,35,14.80
2013,07,04,04,36,14.80
2013,07,04,04,37,14.80
2013,07,04,04,38,14.80
2013,07,04,04,39,14.80
2013,07,04,04,40,14.90
2013,07,04,04,41,14.90
2013,07,04,04,42,14.90
2013,07,04,04,43,14.90
2013,07,04,04,44,14.90
2013,07,04,04,45,14.90
2013,07,04,04,46,14.90
2013,07,04,04,47,14.90
2013,07,04,04,48,14.90
2013,07,04,04,49,14.90
2013,07,04,04,50,14.90
2013,07,04,04,51,14.90
2013,07,04,04,52,14.90
2013,07,04,04,53,14.90
2013,07,04,04,54,14.90
2013,07,04,04,55,14.90
2013,07,04,04,56,14.90
2013,07,04,04,57,14.90
2013,07,04,04,58,14.90
2013,07,04,04,59,14.90
2013,07,04,05,00,14.90
2013,07,04,05,01,14.90
2013,07,04,05,02,14.80
2013,07,04,05,03,14.80
2013,07,04,05,04,14.80
2013,07,04,05,05,14.80
2013,07,04,05,06,14.80
2013,07,04,05,07,14.80
2013,07,04,05,08,14.80
2013,07,04,05,09,14.80
2013,07,04,05,10,14.80
2013,07,04,05,11,14.80
2013,07,04,05,12,14.80
2013,07,04,05,13,14.80
2013,07,04,05,14,14.80
2013,07,04,05,15,14.80
2013,07,04,05,16,14.80
2013,07,04,05,17,14.80
2013,07,04,05,18,14.80
2013,07,04,05,19,14.80
2013,07,04,05,20,14.80
2013,07,04,05,21,14.80
2013,07,04,05,22,14.80
2013,07,04,05,23,14.80
2013,07,04,05,24,14.80
2013,07,04,05,25,14.80
2013,07,04,05,26,14.80
2013,07,04,05,27,14.80
2013,07,04,05,28,14.80
2013,07,04,05,29,14.80
2013,07,04,05,30,14.80
2013,07,04,05,31,14.80
2013,07,04,05,32,14.80
2013,07,04,05,33,14.70
2013,07,04,05,34,14.70
2013,07,04,05,35,14.70
2013,07,04,05,36,14.60
2013,07,04,05,37,14.60
2013,07,04,05,38,14.60
2013,07,04,05,39,14.60
2013,07,04,05,40,14.60
2013,07,04,05,41,14.50
2013,07,04,05,42,14.50
2013,07,04,05,43,14.50
2013,07,04,05,44,14.40
2013,07,04,05,45,14.50
2013,07,04,05,46,14.50
2013,07,04,05,47,14.50
2013,07,04,05,48,14.60
2013,07,04,05,49,14.60
2013,07,04,05,50,14.70
2013,07,04,05,51,14.70
2013,07,04,05,52,14.70
2013,07,04,05,53,14.70
2013,07,04,05,54,14.70
2013,07,04,05,55,14.70
2013,07,04,05,56,14.70
2013,07,04,05,57,14.70
2013,07,04,05,58,14.70
2013,07,04,05,59,14.70
2013,07,04,06,00,14.70
2013,07,04,06,01,14.70
2013,07,04,06,02,14.70
2013,07,04,06,03,14.70
2013,07,04,06,04,14.70
2013,07,04,06,05,14.70
2013,07,04,06,06,14.80
2013,07,04,06,07,14.80
2013,07,04,06,08,14.70
2013,07,04,06,09,14.70
2013,07,04,06,10,14.70
2013,07,04,06,11,14.70
2013,07,04,06,12,14.60
2013,07,04,06,13,14.60
2013,07,04,06,14,14.50
2013,07,04,06,15,14.40
2013,07,04,06,16,14.40
2013,07,04,06,17,14.40
2013,07,04,06,18,14.30
2013,07,04,06,19,14.30
2013,07,04,06,20,14.20
2013,07,04,06,21,14.20
2013,07,04,06,22,14.10
2013,07,04,06,23,14.00
2013,07,04,06,24,14.00
2013,07,04,06,25,13.90
2013,07,04,06,26,13.90
2013,07,04,06,27,13.80
2013,07,04,06,28,13.80
2013,07,04,06,29,13.70
2013,07,04,06,30,13.70
2013,07,04,06,31,13.70
2013,07,04,06,32,13.70
2013,07,04,06,33,13.70
2013,07,04,06,34,13.70
2013,07,04,06,35,13.70
2013,07,04,06,36,13.70
2013,07,04,06,37,13.70
2013,07,04,06,38,13.70
2013,07,04,06,39,13.70
2013,07,04,06,40,13.70
2013,07,04,06,41,13.70
2013,07,04,06,42,13.60
2013,07,04,06,43,13.60
2013,07,04,06,44,13.60
2013,07,04,06,45,13.60
2013,07,04,06,46,13.60
2013,07,04,06,47,13.60
2013,07,04,06,48,13.60
2013,07,04,06,49,13.60
2013,07,04,06,50,13.60
2013,07,04,06,51,13.60
2013,07,04,06,52,13.60
2013,07,04,06,53,13.50
2013,07,04,06,54,13.50
2013,07,04,06,55,13.50
2013,07,04,06,56,13.50
2013,07,04,06,57,13.40
2013,07,04,06,58,13.40
2013,07,04,06,59,13.40
2013,07,04,07,00,13.50
2013,07,04,07,01,13.50
2013,07,04,07,02,13.50
2013,07,04,07,03,13.50
2013,07,04,07,04,13.50
2013,07,04,07,05,13.50
2013,07,04,07,06,13.50
2013,07,04,07,07,13.50
2013,07,04,07,08,13.50
2013,07,04,07,09,13.40
2013,07,04,07,10,13.40
2013,07,04,07,11,13.40
2013,07,04,07,12,13.40
2013,07,04,07,13,13.40
2013,07,04,07,14,13.40
2013,07,04,07,15,13.40
2013,07,04,07,16,13.40
2013,07,04,07,17,13.40
2013,07,04,07,18,13.40
2013,07,04,07,19,13.40
2013,07,04,07,20,13.40
2013,07,04,07,21,13.30
2013,07,04,07,22,13.30
2013,07,04,07,23,13.30
2013,07,04,07,24,13.20
2013,07,04,07,25,13.20
2013,07,04,07,26,13.10
2013,07,04,07,27,13.10
2013,07,04,07,28,13.10
2013,07,04,07,29,13.20
2013,07,04,07,30,13.20
2013,07,04,07,31,13.20
2013,07,04,07,32,13.20
2013,07,04,07,33,13.20
2013,07,04,07,34,13.20
2013,07,04,07,35,13.10
2013,07,04,07,36,13.10
2013,07,04,07,37,13.10
2013,07,04,07,38,13.00
2013,07,04,07,39,13.00
2013,07,04,07,40,13.00
2013,07,04,07,41,13.00
2013,07,04,07,42,13.00
2013,07,04,07,43,13.00
2013,07,04,07,44,13.00
2013,07,04,07,45,13.10
2013,07,04,07,46,13.20
2013,07,04,07,47,13.20
2013,07,04,07,48,13.30
2013,07,04,07,49,13.30
2013,07,04,07,50,13.30
2013,07,04,07,51,13.30
2013,07,04,07,52,13.30
2013,07,04,07,53,13.30
2013,07,04,07,54,13.30
2013,07,04,07,55,13.30
2013,07,04,07,56,13.30
2013,07,04,07,57,13.40
2013,07,04,07,58,13.50
2013,07,04,07,59,13.60
2013,07,04,08,00,13.80
2013,07,04,08,01,13.90
2013,07,04,08,02,14.00
2013,07,04,08,03,14.10
2013,07,04,08,04,14.10
2013,07,04,08,05,14.10
2013,07,04,08,06,14.20
2013,07,04,08,07,14.20
2013,07,04,08,08,14.20
2013,07,04,08,09,14.20
2013,07,04,08,10,14.20
2013,07,04,08,11,14.20
2013,07,04,08,12,14.20
2013,07,04,08,13,14.30
2013,07,04,08,14,14.30
2013,07,04,08,15,14.40
2013,07,04,08,16,14.40
2013,07,04,08,17,14.40
2013,07,04,08,18,14.40
2013,07,04,08,19,14.40
2013,07,04,08,20,14.40
2013,07,04,08,21,14.40
2013,07,04,08,22,14.40
2013,07,04,08,23,14.50
2013,07,04,08,24,14.50
2013,07,04,08,25,14.60
2013,07,04,08,26,14.60
2013,07,04,08,27,14.60
2013,07,04,08,28,14.70
2013,07,04,08,29,14.70
2013,07,04,08,30,14.70
2013,07,04,08,31,14.70
2013,07,04,08,32,14.70
2013,07,04,08,33,14.80
2013,07,04,08,34,14.80
2013,07,04,08,35,14.80
2013,07,04,08,36,14.80
2013,07,04,08,37,14.80
2013,07,04,08,38,14.80
2013,07,04,08,39,14.80
2013,07,04,08,40,14.80
2013,07,04,08,41,14.80
2013,07,04,08,42,14.80
2013,07,04,08,43,14.80
2013,07,04,08,44,14.80
2013,07,04,08,45,14.80
2013,07,04,08,46,14.80
2013,07,04,08,47,14.70
2013,07,04,08,48,14.70
2013,07,04,08,49,14.70
2013,07,04,08,50,14.70
2013,07,04,08,51,14.80
2013,07,04,08,52,14.80
2013,07,04,08,53,14.90
2013,07,04,08,54,15.00
2013,07,04,08,55,15.00
2013,07,04,08,56,15.10
2013,07,04,08,57,15.10
2013,07,04,08,58,15.10
2013,07,04,08,59,15.20
2013,07,04,09,00,15.20
2013,07,04,09,01,15.20
2013,07,04,09,02,15.30
2013,07,04,09,03,15.30
2013,07,04,09,04,15.30
2013,07,04,09,05,15.40
2013,07,04,09,06,15.40
2013,07,04,09,07,15.40
2013,07,04,09,08,15.40
2013,07,04,09,09,15.30
2013,07,04,09,10,15.30
2013,07,04,09,11,15.20
2013,07,04,09,12,15.20
2013,07,04,09,13,15.20
2013,07,04,09,14,15.30
2013,07,04,09,15,15.30
2013,07,04,09,16,15.30
2013,07,04,09,17,15.20
2013,07,04,09,18,15.20
2013,07,04,09,19,15.20
2013,07,04,09,20,15.20
2013,07,04,09,21,15.30
2013,07,04,09,22,15.40
2013,07,04,09,23,15.60
2013,07,04,09,24,15.70
2013,07,04,09,25,15.70
2013,07,04,09,26,15.80
2013,07,04,09,27,15.80
2013,07,04,09,28,15.70
2013,07,04,09,29,15.80
2013,07,04,09,30,15.80
2013,07,04,09,31,15.90
2013,07,04,09,32,16.00
2013,07,04,09,33,16.10
2013,07,04,09,34,16.10
2013,07,04,09,35,16.30
2013,07,04,09,36,16.40
2013,07,04,09,37,16.50
2013,07,04,09,38,16.60
2013,07,04,09,39,16.70
2013,07,04,09,40,16.80
2013,07,04,09,41,16.80
2013,07,04,09,42,16.90
2013,07,04,09,43,17.00
2013,07,04,09,44,17.10
2013,07,04,09,45,17.10
2013,07,04,09,46,17.20
2013,07,04,09,47,17.20
2013,07,04,09,48,17.30
2013,07,04,09,49,17.40
2013,07,04,09,50,17.40
2013,07,04,09,51,17.40
2013,07,04,09,52,17.40
2013,07,04,09,53,17.40
2013,07,04,09,54,17.50
2013,07,04,09,55,17.50
2013,07,04,09,56,17.50
2013,07,04,09,57,17.60
2013,07,04,09,58,17.60
2013,07,04,09,59,17.60
2013,07,04,10,00,17.70
2013,07,04,10,01,17.80
2013,07,04,10,02,17.90
2013,07,04,10,03,18.10
2013,07,04,10,04,18.20
2013,07,04,10,05,18.20
2013,07,04,10,06,18.30
2013,07,04,10,07,18.30
2013,07,04,10,08,18.30
2013,07,04,10,09,18.40
2013,07,04,10,10,18.40
2013,07,04,10,11,18.40
2013,07,04,10,12,18.50
2013,07,04,10,13,18.50
2013,07,04,10,14,18.60
2013,07,04,10,15,18.70
2013,07,04,10,16,18.80
2013,07,04,10,17,18.80
2013,07,04,10,18,18.90
2013,07,04,10,19,18.90
2013,07,04,10,20,18.90
2013,07,04,10,21,18.90
2013,07,04,10,22,19.00
2013,07,04,10,23,19.00
2013,07,04,10,24,19.00
2013,07,04,10,25,19.00
2013,07,04,10,26,19.10
2013,07,04,10,27,19.10
2013,07,04,10,28,19.20
2013,07,04,10,29,19.20
2013,07,04,10,30,19.20
2013,07,04,10,31,19.30
2013,07,04,10,32,19.30
2013,07,04,10,33,19.40
2013,07,04,10,34,19.50
2013,07,04,10,35,19.50
2013,07,04,10,36,19.60
2013,07,04,10,37,19.60
2013,07,04,10,38,19.60
2013,07,04,10,39,19.70
2013,07,04,10,40,19.70
2013,07,04,10,41,19.70
2013,07,04,10,42,19.70
2013,07,04,10,43,19.80
2013,07,04,10,44,19.80
2013,07,04,10,45,19.80
2013,07,04,10,46,19.90
2013,07,04,10,47,19.90
2013,07,04,10,48,19.90
2013,07,04,10,49,19.90
2013,07,04,10,50,19.90
2013,07,04,10,51,20.00
2013,07,04,10,52,20.00
2013,07,04,10,53,20.10
2013,07,04,10,54,20.20
2013,07,04,10,55,20.20
2013,07,04,10,56,20.20
2013,07,04,10,57,20.20
2013,07,04,10,58,20.20
2013,07,04,10,59,20.20
2013,07,04,11,00,20.20
2013,07,04,11,01,20.20
2013,07,04,11,02,20.20
2013,07,04,11,03,20.20
2013,07,04,11,04,20.20
2013,07,04,11,05,20.20
2013,07,04,11,06,20.30
2013,07,04,11,07,20.30
2013,07,04,11,08,20.30
2013,07,04,11,09,20.30
2013,07,04,11,10,20.30
2013,07,04,11,11,20.30
2013,07,04,11,12,20.40
2013,07,04,11,13,20.50
2013,07,04,11,14,20.60
2013,07,04,11,15,20.60
2013,07,04,11,16,20.70
2013,07,04,11,17,20.80
2013,07,04,11,18,20.90
2013,07,04,11,19,20.90
2013,07,04,11,20,20.90
2013,07,04,11,21,20.90
2013,07,04,11,22,21.00
2013,07,04,11,23,21.10
2013,07,04,11,24,21.20
2013,07,04,11,25,21.20
2013,07,04,11,26,21.30
2013,07,04,11,27,21.30
2013,07,04,11,28,21.30
2013,07,04,11,29,21.30
2013,07,04,11,30,21.40
2013,07,04,11,31,21.40
2013,07,04,11,32,21.50
2013,07,04,11,33,21.50
2013,07,04,11,34,21.60
2013,07,04,11,35,21.70
2013,07,04,11,36,21.80
2013,07,04,11,37,21.80
2013,07,04,11,38,21.90
2013,07,04,11,39,22.00
2013,07,04,11,40,22.00
2013,07,04,11,41,22.00
2013,07,04,11,42,22.00
2013,07,04,11,43,22.00
2013,07,04,11,44,22.00
2013,07,04,11,45,21.90
2013,07,04,11,46,21.90
2013,07,04,11,47,22.00
2013,07,04,11,48,22.10
2013,07,04,11,49,22.10
2013,07,04,11,50,22.20
2013,07,04,11,51,22.20
2013,07,04,11,52,22.20
2013,07,04,11,53,22.10
2013,07,04,11,54,22.10
2013,07,04,11,55,21.90
2013,07,04,11,56,21.90
2013,07,04,11,57,21.80
2013,07,04,11,58,21.70
2013,07,04,11,59,21.60
2013,07,04,12,00,21.60
2013,07,04,12,01,21.50
2013,07,04,12,02,21.50
2013,07,04,12,03,21.50
2013,07,04,12,04,21.50
2013,07,04,12,05,21.50
2013,07,04,12,06,21.40
2013,07,04,12,07,21.50
2013,07,04,12,08,21.50
2013,07,04,12,09,21.50
2013,07,04,12,10,21.50
2013,07,04,12,11,21.50
2013,07,04,12,12,21.40
2013,07,04,12,13,21.30
2013,07,04,12,14,21.30
2013,07,04,12,15,21.40
2013,07,04,12,16,21.40
2013,07,04,12,17,21.40
2013,07,04,12,18,21.50
2013,07,04,12,19,21.60
2013,07,04,12,20,21.70
2013,07,04,12,21,21.70
2013,07,04,12,22,21.70
2013,07,04,12,23,21.70
2013,07,04,12,24,21.60
2013,07,04,12,25,21.50
2013,07,04,12,26,21.50
2013,07,04,12,27,21.40
2013,07,04,12,28,21.40
2013,07,04,12,29,21.40
2013,07,04,12,30,21.50
2013,07,04,12,31,21.50
2013,07,04,12,32,21.60
2013,07,04,12,33,21.60
2013,07,04,12,34,21.70
2013,07,04,12,35,21.70
2013,07,04,12,36,21.80
2013,07,04,12,37,21.90
2013,07,04,12,38,21.90
2013,07,04,12,39,21.90
2013,07,04,12,40,21.90
2013,07,04,12,41,21.90
2013,07,04,12,42,21.80
2013,07,04,12,43,21.80
2013,07,04,12,44,21.80
2013,07,04,12,45,21.80
2013,07,04,12,46,21.80
2013,07,04,12,47,21.70
2013,07,04,12,48,21.70
2013,07,04,12,49,21.70
2013,07,04,12,50,21.80
2013,07,04,12,51,21.80
2013,07,04,12,52,21.80
2013,07,04,12,53,21.80
2013,07,04,12,54,21.80
2013,07,04,12,55,21.80
2013,07,04,12,56,21.80
2013,07,04,12,57,21.90
2013,07,04,12,58,21.90
2013,07,04,12,59,22.00
2013,07,04,13,00,22.10
2013,07,04,13,01,22.10
2013,07,04,13,02,22.10
2013,07,04,13,03,22.10
2013,07,04,13,04,22.10
2013,07,04,13,05,22.20
2013,07,04,13,06,22.20
2013,07,04,13,07,22.20
2013,07,04,13,08,22.20
2013,07,04,13,09,22.20
2013,07,04,13,10,22.20
2013,07,04,13,11,22.20
2013,07,04,13,12,22.20
2013,07,04,13,13,22.20
2013,07,04,13,14,22.30
2013,07,04,13,15,22.20
2013,07,04,13,16,22.20
2013,07,04,13,17,22.10
2013,07,04,13,18,22.10
2013,07,04,13,19,22.10
2013,07,04,13,20,22.10
2013,07,04,13,21,22.00
2013,07,04,13,22,22.00
2013,07,04,13,23,21.90
2013,07,04,13,24,21.90
2013,07,04,13,25,21.90
2013,07,04,13,26,21.80
2013,07,04,13,27,21.80
2013,07,04,13,28,21.80
2013,07,04,13,29,21.80
2013,07,04,13,30,21.90
2013,07,04,13,31,21.90
2013,07,04,13,32,21.90
2013,07,04,13,33,22.00
2013,07,04,13,34,22.00
2013,07,04,13,35,22.00
2013,07,04,13,36,22.00
2013,07,04,13,37,22.00
2013,07,04,13,38,22.00
2013,07,04,13,39,22.00
2013,07,04,13,40,22.00
2013,07,04,13,41,21.90
2013,07,04,13,42,21.80
2013,07,04,13,43,21.80
2013,07,04,13,44,21.80
2013,07,04,13,45,21.80
2013,07,04,13,46,21.70
2013,07,04,13,47,21.60
2013,07,04,13,48,21.60
2013,07,04,13,49,21.60
2013,07,04,13,50,21.60
2013,07,04,13,51,21.70
2013,07,04,13,52,21.70
2013,07,04,13,53,21.70
2013,07,04,13,54,21.70
2013,07,04,13,55,21.70
2013,07,04,13,56,21.60
2013,07,04,13,57,21.60
2013,07,04,13,58,21.60
2013,07,04,13,59,21.70
2013,07,04,14,00,21.70
2013,07,04,14,01,21.80
2013,07,04,14,02,21.80
2013,07,04,14,03,21.90
2013,07,04,14,04,21.90
2013,07,04,14,05,21.90
2013,07,04,14,06,21.90
2013,07,04,14,07,22.00
2013,07,04,14,08,22.00
2013,07,04,14,09,22.10
2013,07,04,14,10,22.10
2013,07,04,14,11,22.10
2013,07,04,14,12,22.10
2013,07,04,14,13,22.00
2013,07,04,14,14,21.90
2013,07,04,14,15,21.90
2013,07,04,14,16,21.90
2013,07,04,14,17,21.90
2013,07,04,14,18,21.90
2013,07,04,14,19,21.90
2013,07,04,14,20,21.90
2013,07,04,14,21,21.90
2013,07,04,14,22,21.90
2013,07,04,14,23,21.90
2013,07,04,14,24,21.80
2013,07,04,14,25,21.80
2013,07,04,14,26,21.80
2013,07,04,14,27,21.80
2013,07,04,14,28,21.80
2013,07,04,14,29,21.90
2013,07,04,14,30,21.90
2013,07,04,14,31,22.00
2013,07,04,14,32,21.90
2013,07,04,14,33,21.90
2013,07,04,14,34,21.90
2013,07,04,14,35,21.90
2013,07,04,14,36,22.00
2013,07,04,14,37,22.00
2013,07,04,14,38,22.00
2013,07,04,14,39,21.90
2013,07,04,14,40,21.80
2013,07,04,14,41,21.70
2013,07,04,14,42,21.50
2013,07,04,14,43,21.40
2013,07,04,14,44,21.30
2013,07,04,14,45,21.20
2013,07,04,14,46,21.20
2013,07,04,14,47,21.20
2013,07,04,14,48,21.20
2013,07,04,14,49,21.20
2013,07,04,14,50,21.20
2013,07,04,14,51,21.20
2013,07,04,14,52,21.10
2013,07,04,14,53,21.10
2013,07,04,14,54,21.00
2013,07,04,14,55,20.90
2013,07,04,14,56,20.90
2013,07,04,14,57,20.80
2013,07,04,14,58,20.80
2013,07,04,14,59,20.80
2013,07,04,15,00,20.70
2013,07,04,15,01,20.70
2013,07,04,15,02,20.70
2013,07,04,15,03,20.80
2013,07,04,15,04,20.80
2013,07,04,15,05,20.90
2013,07,04,15,06,20.90
2013,07,04,15,07,20.90
2013,07,04,15,08,20.90
2013,07,04,15,09,20.90
2013,07,04,15,10,20.80
2013,07,04,15,11,20.80
2013,07,04,15,12,20.80
2013,07,04,15,13,20.80
2013,07,04,15,14,20.80
2013,07,04,15,15,20.80
2013,07,04,15,16,20.80
2013,07,04,15,17,20.80
2013,07,04,15,18,20.80
2013,07,04,15,19,20.80
2013,07,04,15,20,20.80
2013,07,04,15,21,20.80
2013,07,04,15,22,20.70
2013,07,04,15,23,20.70
2013,07,04,15,24,20.70
2013,07,04,15,25,20.70
2013,07,04,15,26,20.70
2013,07,04,15,27,20.70
2013,07,04,15,28,20.70
2013,07,04,15,29,20.70
2013,07,04,15,30,20.60
2013,07,04,15,31,20.50
2013,07,04,15,32,20.40
2013,07,04,15,33,20.40
2013,07,04,15,34,20.30
2013,07,04,15,35,20.30
2013,07,04,15,36,20.30
2013,07,04,15,37,20.30
2013,07,04,15,38,20.20
2013,07,04,15,39,20.20
2013,07,04,15,40,20.10
2013,07,04,15,41,20.10
2013,07,04,15,42,20.10
2013,07,04,15,43,20.10
2013,07,04,15,44,20.10
2013,07,04,15,45,20.10
2013,07,04,15,46,20.00
2013,07,04,15,47,20.00
2013,07,04,15,48,20.00
2013,07,04,15,49,20.00
2013,07,04,15,50,20.00
2013,07,04,15,51,20.00
2013,07,04,15,52,20.00
2013,07,04,15,53,20.00
2013,07,04,15,54,20.00
2013,07,04,15,55,19.90
2013,07,04,15,56,19.90
2013,07,04,15,57,19.90
2013,07,04,15,58,19.90
2013,07,04,15,59,19.90
2013,07,04,16,00,19.80
2013,07,04,16,01,19.70
2013,07,04,16,02,19.70
2013,07,04,16,03,19.60
2013,07,04,16,04,19.60
2013,07,04,16,05,19.60
2013,07,04,16,06,19.60
2013,07,04,16,07,19.60
2013,07,04,16,08,19.60
2013,07,04,16,09,19.60
2013,07,04,16,10,19.50
2013,07,04,16,11,19.50
2013,07,04,16,12,19.50
2013,07,04,16,13,19.50
2013,07,04,16,14,19.50
2013,07,04,16,15,19.60
2013,07,04,16,16,19.50
2013,07,04,16,17,19.50
2013,07,04,16,18,19.50
2013,07,04,16,19,19.50
2013,07,04,16,20,19.50
2013,07,04,16,21,19.60
2013,07,04,16,22,19.60
2013,07,04,16,23,19.70
2013,07,04,16,24,19.70
2013,07,04,16,25,19.70
2013,07,04,16,26,19.70
2013,07,04,16,27,19.70
2013,07,04,16,28,19.60
2013,07,04,16,29,19.60
2013,07,04,16,30,19.60
2013,07,04,16,31,19.50
2013,07,04,16,32,19.50
2013,07,04,16,33,19.40
2013,07,04,16,34,19.40
2013,07,04,16,35,19.40
2013,07,04,16,36,19.40
2013,07,04,16,37,19.40
2013,07,04,16,38,19.40
2013,07,04,16,39,19.40
2013,07,04,16,40,19.30
2013,07,04,16,41,19.30
2013,07,04,16,42,19.30
2013,07,04,16,43,19.30
2013,07,04,16,44,19.20
2013,07,04,16,45,19.20
2013,07,04,16,46,19.20
2013,07,04,16,47,19.20
2013,07,04,16,48,19.20
2013,07,04,16,49,19.20
2013,07,04,16,50,19.20
2013,07,04,16,51,19.20
2013,07,04,16,52,19.30
2013,07,04,16,53,19.30
2013,07,04,16,54,19.30
2013,07,04,16,55,19.30
2013,07,04,16,56,19.40
2013,07,04,16,57,19.40
2013,07,04,16,58,19.40
2013,07,04,16,59,19.40
2013,07,04,17,00,19.40
2013,07,04,17,01,19.40
2013,07,04,17,02,19.40
2013,07,04,17,03,19.40
2013,07,04,17,04,19.40
2013,07,04,17,05,19.40
2013,07,04,17,06,19.40
2013,07,04,17,07,19.30
2013,07,04,17,08,19.30
2013,07,04,17,09,19.30
2013,07,04,17,10,19.30
2013,07,04,17,11,19.30
2013,07,04,17,12,19.30
2013,07,04,17,13,19.30
2013,07,04,17,14,19.30
2013,07,04,17,15,19.30
2013,07,04,17,16,19.30
2013,07,04,17,17,19.30
2013,07,04,17,18,19.30
2013,07,04,17,19,19.30